Showing default

ESSA 4 (TOS-B), 2657

Orbit data source: Space-Track

ESSA 4 (TOS-B), 2657 is a payload satellite owned by ESSA (US) in SSO that was launched on Thu, 26 Jan 1967 UTC via a THOR DELTA E launch vehicle from the Air Force Western Test Range (AFWTR). Payloads include a variety of satellites, spacecraft, and rockets equipped with specific instruments for various scientific and technological missions. These include communications satellites like Starlink; space stations such as the ISS; scientific satellites like the Hubble; Earth observation satellites from companies like Planet Labs, Umbra, and HawkEye 360; GPS; miniature CubeSats for education and research; and military/defense satellites.

Loading next visibility...
ESSA 4 (TOS-B) details
Identifier
2657, 1967-006A
Orbit
SSO
Last TLE update7 hours ago
Origin
Flag of USESSA (US)
ManufacturerRCA/East Windsor
MissionNon-operational Civil Weather
Bus & MotorTIROS I, Unknown motor
Mass132 kg wet, 132 kg dry
Launch date (UTC)
1967-01-26 (58 years ago)
Launch vehicle
THOR DELTA E
Launch site
Air Force Western Test Range (AFWTR)
Object type
Payload
Rocket body
Debris
Shape & HBRCyl, 1.1 m
Radar Cross Section0.994 m², Medium (>0.1 m² and < 1m²)

Expand to show TLE details & history

TLE from 7 hours ago
0 ESSA 4 (TOS-B)
1  2657U 67006A   24356.38197066 -.00000035  00000-0  72963-4 0  9999
2  2657 102.0629 157.2954 0072899 262.6872 129.2851 12.69878002684080
Epoch: 2024-12-21T09:10Z
Definitive object data (Epoch: 2024-12-21T09:10:02.265Z)
Latitude31.86554°
Longitude-78.24391°
Altitude1,422.309 km
Speed7.136 km/s
True Right ascension09h 58m 47s
True Declination31° 43' 29"
Sunlit
Object was in full shadow at TLE epoch
Visualization TLE readout
Latitude-10.76436°
Longitude107.3191°
Altitude1,368.558 km
Speed7.183 km/s
Apparent Right ascension00h 00m 16s
Apparent Declination-27° 24' 49"
Sunlit
Object is in daylight
Visualization observer readout
Local Sidereal Time14:43:01
Azimuth82.244° E
Elevation-54.265°
Doppler factor1
Orbital elements
Apogee altitude1,436.532 km
Perigee altitude1,323.42 km
Semi-major axis7,758.113 km
Eccentricity0.0072899
Inclination102.0629°
RAAN157.2954°
Arg. of periapsis262.6872°
True anomaly129.92795°
Mean anomaly129.2851°
Eccentric anomaly129.6069°
Mean motion3.17621 °/min
BSTAR0.000072963
Orbital period113.34 mins
Loading maneuver chart data...
Loading historical data...
Loading historical data...
Loading historical data...
Loading historical data...
Loading historical data...
Loading historical data...
Loading historical data...
Other satellites on launch #6 in the year 1967 (1967-01-26 UTC)

ESSA 4 (TOS-B) Visibility forecast

Observer location: undefined°, undefined

Span
Click to sort rows by Start time (UTC) header in descending order
Start Az.
Max El. time (UTC)
Max El. Az.
Max El.
End time (UTC)
End Az.
13 mins2024-12-21 22:52:41.229Z38.862° NE2024-12-21 22:58:41.229Z92.215° ESE29.139°2024-12-21 23:05:41.229Z158.304° S
13 mins2024-12-22 00:44:41.229Z3.921° NNE2024-12-22 00:50:41.229Z293.348° NW38.581°2024-12-22 00:57:41.229Z223.972° SW
13 mins2024-12-22 09:42:41.229Z124.161° SE2024-12-22 09:48:41.229Z65.82° ENE34.028°2024-12-22 09:55:41.229Z357.113° N
14 mins2024-12-22 11:33:41.229Z193.153° SSW2024-12-22 11:39:41.229Z251.385° W34.659°2024-12-22 11:47:41.229Z329.134° NNW
|